Find Starlink 2654

NORAD ID: 48454 Int'l Des: 2021-040 Owner: SPXS Country: US Constellation: starlink operational
LEOCIRCULAR

現在のビュー

3D地球を読み込み中...

About Starlink 2654

Starlink 2654 (NORAD 48454) is a starlink constellation satellite (v1.0) launched May 9, 2021 by SPXS of US. It operates in LEO, CIRCULAR orbit with a mass of 260.00 kg.

Starlink 2654について

説明を読み込み中...

次回通過

Passes for default location (London). Set your location on the main map for personalized predictions.

高度履歴

Loading altitude history...

軌道要素

1 48454U 21040AC 26171.41353234 .00000064 00000-0 13843-4 0 9997
2 48454 53.1631 60.1964 0001699 82.3140 277.8054 15.31702025282422
Epoch: Jun 20, 2026 • Age: 9 hours

現在のステータス

高度 478.6 km
速度 7.63 km/s
衛星直下点 -24.67°S, 69.43°E
打ち上げ日 May 9, 2021
運用期間 5.1 years
タイプ internet

技術仕様

分類 Payload
質量 260.00 kg
乾燥質量 248.00 kg
総質量 260.00 kg
長さ 0.20 m
直径 2.80 m
スパン 9.00 m
形状 Box + pan
製造者 SPXS
バスタイプ Starlink
フェーズステータス In Orbit
所有者/国 SPXS/US

Most Searched